Torna al catalogo

SL-8 R/B

AttivoPO
NORAD 10600·ROCKET BODY·🇷🇺 Russia

Lanciato Jan 17, 1978 da Plesetsk Cosmodrome

Loading…

Prossimi Passaggi (prossime 24 ore)

TLE

AggiornatoSource: Space-Track

Epoca: Sep 14, 2026, 08:22 UTC

1 10600U 78007B   26257.34914397  .00000141  00000-0  12277-3 0  9999
2 10600  82.9368 282.4222 0047713 186.9369 173.1135 13.78853145446887

Traccia SL-8 R/B in tempo reale con AllMySat

Download on the App Store